| time (UTC) | temp F | wind direction | speed MPH | gust MPH | rain 1hr in | rain 24hr in | rain mn in | humidity % | barometer mb |
| 20260505173515 | 57 | 270 | 5.0 | 18.0 | 0.00 | 0.00 | 0.00 | 35 | 1007.4 |
| 20260505173032 | 57 | 331 | 5.0 | 18.0 | 0.00 | 0.00 | 0.00 | 36 | 1007.5 |
| 20260505172514 | 56 | 266 | 6.0 | 15.0 | 0.00 | 0.00 | 0.00 | 38 | 1007.5 |
| 20260505172013 | 56 | 292 | 7.0 | 15.0 | 0.00 | 0.00 | 0.00 | 37 | 1007.4 |
| 20260505171530 | 57 | 30 | 4.0 | 14.0 | 0.00 | 0.00 | 0.00 | 43 | 1007.5 |
| 20260505171014 | 56 | 321 | 3.0 | 12.0 | 0.00 | 0.00 | 0.00 | 41 | 1007.3 |
| 20260505170511 | 56 | 305 | 6.0 | 12.0 | 0.00 | 0.00 | 0.00 | 39 | 1007.2 |
| 20260505170031 | 56 | 252 | 6.0 | 13.0 | 0.00 | 0.00 | 0.00 | 38 | 1007.0 |
| 20260505165514 | 55 | 352 | 4.0 | 15.0 | 0.00 | 0.00 | 0.00 | 43 | 1007.1 |
| 20260505165014 | 55 | 256 | 4.0 | 15.0 | 0.00 | 0.00 | 0.00 | 38 | 1007.1 |
| 20260505164534 | 55 | 263 | 7.0 | 15.0 | 0.00 | 0.00 | 0.00 | 37 | 1007.0 |
| 20260505164014 | 55 | 297 | 5.0 | 17.0 | 0.00 | 0.00 | 0.00 | 43 | 1007.0 |
| 20260505163514 | 55 | 242 | 7.0 | 17.0 | 0.00 | 0.00 | 0.00 | 38 | 1007.2 |
| 20260505163036 | 55 | 244 | 6.0 | 15.0 | 0.00 | 0.00 | 0.00 | 37 | 1007.4 |
| 20260505162512 | 55 | 280 | 4.0 | 13.0 | 0.00 | 0.00 | 0.00 | 37 | 1007.2 |
| 20260505162014 | 55 | 306 | 6.0 | 13.0 | 0.00 | 0.00 | 0.00 | 40 | 1007.4 |
| 20260505161532 | 54 | 269 | 3.0 | 15.0 | 0.00 | 0.00 | 0.00 | 41 | 1007.2 |
| 20260505161014 | 54 | 319 | 5.0 | 15.0 | 0.00 | 0.00 | 0.00 | 41 | 1007.4 |
| 20260505160511 | 55 | 256 | 6.0 | 16.0 | 0.00 | 0.00 | 0.00 | 38 | 1007.4 |
| 20260505153039 | 53 | 274 | 4.0 | 16.0 | 0.00 | 0.00 | 0.00 | 42 | 1007.2 |
| 20260505152515 | 54 | 252 | 9.0 | 16.0 | 0.00 | 0.00 | 0.00 | 39 | 1007.4 |
| 20260505152020 | 54 | 0 | 3.0 | 15.0 | 0.00 | 0.00 | 0.00 | 42 | 1007.1 |
| 20260505151530 | 54 | 246 | 7.0 | 15.0 | 0.00 | 0.00 | 0.00 | 43 | 1007.2 |
| 20260505151014 | 53 | 236 | 7.0 | 15.0 | 0.00 | 0.00 | 0.00 | 44 | 1007.2 |
| 20260505150514 | 53 | 262 | 5.0 | 15.0 | 0.00 | 0.00 | 0.00 | 42 | 1007.2 |
| 20260505140512 | 52 | 176 | 6.0 | 18.0 | 0.00 | 0.00 | 0.00 | 44 | 1007.9 |
| 20260505125011 | 47 | 294 | 1.0 | 8.0 | 0.00 | 0.00 | 0.00 | 51 | 1007.4 |
| 20260505124531 | 47 | 222 | 3.0 | 8.0 | 0.00 | 0.00 | 0.00 | 48 | 1008.0 |
| 20260505124012 | 47 | 265 | 2.0 | 8.0 | 0.00 | 0.00 | 0.00 | 49 | 1007.6 |
| 20260505123514 | 47 | 0 | 3.0 | 8.0 | 0.00 | 0.00 | 0.00 | 49 | 1007.1 |
| 20260505123042 | 47 | 286 | 1.0 | 6.0 | 0.00 | 0.00 | 0.00 | 51 | 1007.1 |
| 20260505122514 | 46 | 341 | 1.0 | 5.0 | 0.00 | 0.00 | 0.00 | 54 | 1007.3 |
| 20260505122014 | 46 | 0 | 1.0 | 5.0 | 0.00 | 0.00 | 0.00 | 52 | 1007.5 |
| 20260505121533 | 45 | 247 | 1.0 | 7.0 | 0.00 | 0.00 | 0.00 | 52 | 1008.0 |
| 20260505121013 | 45 | 212 | 2.0 | 7.0 | 0.00 | 0.00 | 0.00 | 52 | 1008.2 |
| 20260505120513 | 45 | 225 | 3.0 | 7.0 | 0.00 | 0.00 | 0.00 | 53 | 1008.1 |
| 20260505120043 | 45 | 252 | 2.0 | 6.0 | 0.00 | 0.00 | 0.00 | 51 | 1007.1 |
| 20260505115514 | 45 | 247 | 0.0 | 6.0 | 0.00 | 0.00 | 0.00 | 53 | 1006.8 |
| 20260505115012 | 44 | 263 | 0.0 | 4.0 | 0.00 | 0.00 | 0.00 | 52 | 1006.5 |
| 20260505114531 | 44 | 261 | 1.0 | 4.0 | 0.00 | 0.00 | 0.00 | 54 | 1006.4 |
| 20260505114012 | 44 | 351 | 0.0 | 3.0 | 0.00 | 0.00 | 0.00 | 53 | 1006.1 |
| 20260505113513 | 44 | 0 | 0.0 | 4.0 | 0.00 | 0.00 | 0.00 | 53 | 1005.8 |
| 20260505113031 | 44 | 0 | 0.0 | 4.0 | 0.00 | 0.00 | 0.00 | 52 | 1005.9 |
| 20260505112517 | 44 | 342 | 1.0 | 4.0 | 0.00 | 0.00 | 0.00 | 53 | 1006.1 |
| 20260505112010 | 45 | 252 | 0.0 | 6.0 | 0.00 | 0.00 | 0.00 | 51 | 1006.2 |
| 20260505111533 | 45 | 293 | 1.0 | 6.0 | 0.00 | 0.00 | 0.00 | 51 | 1006.3 |
| 20260505111015 | 45 | 259 | 1.0 | 6.0 | 0.00 | 0.00 | 0.00 | 51 | 1006.5 |
| 20260505110513 | 45 | 263 | 1.0 | 6.0 | 0.00 | 0.00 | 0.00 | 50 | 1006.5 |
| 20260505102013 | 46 | 346 | 1.0 | 12.0 | 0.00 | 0.00 | 0.00 | 48 | 1005.6 |
| 20260505101535 | 46 | 276 | 3.0 | 12.0 | 0.00 | 0.00 | 0.00 | 48 | 1005.6 |
| 20260505101014 | 46 | 264 | 2.0 | 10.0 | 0.00 | 0.00 | 0.00 | 48 | 1005.7 |
| 20260505100513 | 46 | 320 | 3.0 | 10.0 | 0.00 | 0.00 | 0.00 | 48 | 1005.3 |
| 20260505100033 | 46 | 257 | 1.0 | 10.0 | 0.00 | 0.00 | 0.00 | 47 | 1005.1 |
| 20260505095510 | 46 | 331 | 4.0 | 11.0 | 0.00 | 0.00 | 0.00 | 48 | 1005.2 |
| 20260505095011 | 46 | 274 | 4.0 | 11.0 | 0.00 | 0.00 | 0.00 | 49 | 1005.4 |
| 20260505094528 | 46 | 319 | 0.0 | 9.0 | 0.00 | 0.00 | 0.00 | 48 | 1005.4 |
| 20260505094014 | 46 | 275 | 2.0 | 9.0 | 0.00 | 0.00 | 0.00 | 49 | 1005.4 |
| 20260505093514 | 46 | 244 | 2.0 | 7.0 | 0.00 | 0.00 | 0.00 | 49 | 1005.4 |
| 20260505093030 | 46 | 263 | 1.0 | 8.0 | 0.00 | 0.00 | 0.00 | 49 | 1005.5 |
| 20260505092514 | 46 | 259 | 2.0 | 8.0 | 0.00 | 0.00 | 0.00 | 50 | 1005.5 |
| 20260505092014 | 46 | 264 | 1.0 | 7.0 | 0.00 | 0.00 | 0.00 | 50 | 1005.5 |
| 20260505091531 | 46 | 282 | 1.0 | 7.0 | 0.00 | 0.00 | 0.00 | 52 | 1005.3 |
| 20260505091013 | 46 | 315 | 2.0 | 8.0 | 0.00 | 0.00 | 0.00 | 50 | 1005.1 |
| 20260505090513 | 46 | 327 | 2.0 | 8.0 | 0.00 | 0.00 | 0.00 | 50 | 1004.9 |
| 20260505090030 | 46 | 286 | 2.0 | 5.0 | 0.00 | 0.00 | 0.00 | 50 | 1004.7 |
| 20260505085516 | 46 | 243 | 2.0 | 6.0 | 0.00 | 0.00 | 0.00 | 50 | 1004.6 |
| 20260505085013 | 46 | 288 | 2.0 | 6.0 | 0.00 | 0.00 | 0.00 | 51 | 1004.6 |
| 20260505084543 | 47 | 248 | 0.0 | 8.0 | 0.00 | 0.00 | 0.00 | 51 | 1004.4 |
| 20260505084013 | 47 | 331 | 1.0 | 8.0 | 0.00 | 0.00 | 0.00 | 51 | 1004.5 |
| 20260505083515 | 47 | 323 | 2.0 | 8.0 | 0.00 | 0.00 | 0.00 | 51 | 1004.4 |
| 20260505083046 | 47 | 339 | 3.0 | 12.0 | 0.00 | 0.00 | 0.00 | 50 | 1004.4 |
| 20260505082514 | 47 | 346 | 5.0 | 12.0 | 0.00 | 0.00 | 0.00 | 50 | 1004.3 |
| 20260505082014 | 48 | 294 | 3.0 | 9.0 | 0.00 | 0.00 | 0.00 | 50 | 1004.0 |
| 20260505081537 | 48 | 340 | 3.0 | 9.0 | 0.00 | 0.00 | 0.00 | 50 | 1004.1 |
| 20260505081015 | 48 | 261 | 2.0 | 11.0 | 0.00 | 0.00 | 0.00 | 50 | 1003.9 |
| 20260505080512 | 48 | 313 | 3.0 | 11.0 | 0.00 | 0.00 | 0.00 | 50 | 1003.7 |
| 20260505080040 | 48 | 288 | 4.0 | 15.0 | 0.00 | 0.00 | 0.00 | 50 | 1003.6 |
| 20260505075514 | 49 | 336 | 6.0 | 15.0 | 0.00 | 0.00 | 0.00 | 50 | 1003.2 |
| 20260505075011 | 49 | 360 | 3.0 | 11.0 | 0.00 | 0.00 | 0.00 | 49 | 1003.2 |
| 20260505074529 | 49 | 340 | 4.0 | 11.0 | 0.00 | 0.00 | 0.00 | 49 | 1003.3 |
| 20260505074012 | 49 | 311 | 4.0 | 14.0 | 0.00 | 0.00 | 0.00 | 49 | 1003.3 |
| 20260505073512 | 50 | 34 | 4.0 | 14.0 | 0.00 | 0.00 | 0.00 | 48 | 1003.1 |
| 20260505073045 | 50 | 284 | 7.0 | 14.0 | 0.00 | 0.00 | 0.00 | 48 | 1003.0 |
| 20260505072515 | 50 | 331 | 5.0 | 14.0 | 0.00 | 0.00 | 0.00 | 49 | 1003.1 |
| 20260505072011 | 50 | 301 | 5.0 | 14.0 | 0.00 | 0.00 | 0.00 | 49 | 1002.9 |
| 20260505071541 | 50 | 337 | 3.0 | 12.0 | 0.00 | 0.00 | 0.00 | 50 | 1003.0 |
| 20260505071011 | 51 | 345 | 2.0 | 10.0 | 0.00 | 0.00 | 0.00 | 49 | 1003.0 |
| 20260505070518 | 51 | 265 | 3.0 | 14.0 | 0.00 | 0.00 | 0.00 | 50 | 1003.0 |
| 20260505070040 | 51 | 34 | 3.0 | 14.0 | 0.00 | 0.00 | 0.00 | 49 | 1002.7 |
| 20260505065513 | 51 | 340 | 4.0 | 14.0 | 0.00 | 0.00 | 0.00 | 49 | 1002.6 |
| 20260505065013 | 51 | 336 | 3.0 | 12.0 | 0.00 | 0.00 | 0.00 | 49 | 1002.5 |
| 20260505064528 | 51 | 342 | 2.0 | 14.0 | 0.00 | 0.00 | 0.00 | 49 | 1002.4 |
| 20260505064013 | 52 | 270 | 4.0 | 14.0 | 0.00 | 0.00 | 0.00 | 48 | 1002.4 |
| 20260505063511 | 52 | 311 | 5.0 | 14.0 | 0.00 | 0.00 | 0.00 | 48 | 1002.3 |
| 20260505063036 | 52 | 309 | 4.0 | 13.0 | 0.00 | 0.00 | 0.00 | 48 | 1002.2 |
| 20260505062514 | 53 | 292 | 2.0 | 14.0 | 0.00 | 0.00 | 0.00 | 47 | 1002.2 |
| 20260505062011 | 53 | 313 | 5.0 | 14.0 | 0.00 | 0.00 | 0.00 | 47 | 1002.1 |
| 20260505061532 | 53 | 297 | 6.0 | 14.0 | 0.00 | 0.00 | 0.00 | 46 | 1002.1 |
| 20260505061013 | 54 | 30 | 2.0 | 12.0 | 0.00 | 0.00 | 0.00 | 47 | 1002.2 |
| 20260505060514 | 54 | 5 | 4.0 | 12.0 | 0.00 | 0.00 | 0.00 | 47 | 1002.2 |
| 20260505060051 | 54 | 319 | 4.0 | 9.0 | 0.00 | 0.00 | 0.00 | 46 | 1002.2 |
| 20260505055513 | 55 | 320 | 4.0 | 10.0 | 0.00 | 0.00 | 0.00 | 46 | 1002.2 |
| 20260505055016 | 55 | 300 | 4.0 | 12.0 | 0.00 | 0.00 | 0.00 | 45 | 1002.1 |
| 20260505054528 | 55 | 271 | 6.0 | 12.0 | 0.00 | 0.00 | 0.00 | 44 | 1002.2 |
| 20260505054017 | 56 | 313 | 4.0 | 12.0 | 0.00 | 0.00 | 0.00 | 44 | 1002.0 |
| 20260505053512 | 56 | 355 | 4.0 | 12.0 | 0.00 | 0.00 | 0.00 | 43 | 1001.7 |
| 20260505053032 | 57 | 263 | 2.0 | 9.0 | 0.00 | 0.00 | 0.00 | 43 | 1001.5 |
| 20260505052511 | 57 | 350 | 3.0 | 15.0 | 0.00 | 0.00 | 0.00 | 42 | 1001.3 |
| 20260505052011 | 57 | 318 | 5.0 | 15.0 | 0.00 | 0.00 | 0.00 | 41 | 1001.1 |
| 20260505051530 | 57 | 298 | 6.0 | 15.0 | 0.00 | 0.00 | 0.00 | 40 | 1001.1 |
| 20260505051014 | 58 | 233 | 2.0 | 10.0 | 0.00 | 0.00 | 0.00 | 39 | 1000.7 |
| 20260505050514 | 58 | 294 | 2.0 | 10.0 | 0.00 | 0.00 | 0.00 | 39 | 1000.9 |
| 20260505041532 | 61 | 159 | 3.0 | 15.0 | 0.00 | 0.00 | 0.00 | 35 | 1000.0 |
| 20260505041012 | 61 | 300 | 4.0 | 15.0 | 0.00 | 0.00 | 0.00 | 34 | 999.8 |
| 20260505040517 | 61 | 298 | 3.0 | 12.0 | 0.00 | 0.00 | 0.00 | 35 | 999.6 |
| 20260505040030 | 62 | 288 | 5.0 | 12.0 | 0.00 | 0.00 | 0.00 | 34 | 999.5 |
| 20260505035513 | 62 | 329 | 6.0 | 12.0 | 0.00 | 0.00 | 0.00 | 34 | 999.5 |
| 20260505035013 | 62 | 315 | 4.0 | 11.0 | 0.00 | 0.00 | 0.00 | 34 | 999.5 |
| 20260505034527 | 62 | 250 | 2.0 | 12.0 | 0.00 | 0.00 | 0.00 | 33 | 999.5 |
| 20260505034017 | 62 | 238 | 4.0 | 16.0 | 0.00 | 0.00 | 0.00 | 33 | 999.6 |
| 20260505033513 | 63 | 267 | 5.0 | 16.0 | 0.00 | 0.00 | 0.00 | 32 | 999.7 |
| 20260505033034 | 63 | 268 | 6.0 | 16.0 | 0.00 | 0.00 | 0.00 | 32 | 999.6 |
| 20260505032515 | 63 | 252 | 5.0 | 11.0 | 0.00 | 0.00 | 0.00 | 34 | 999.5 |
| 20260505032019 | 63 | 289 | 5.0 | 11.0 | 0.00 | 0.00 | 0.00 | 33 | 999.5 |
| 20260505031530 | 63 | 290 | 4.0 | 11.0 | 0.00 | 0.00 | 0.00 | 33 | 999.5 |
| 20260505031015 | 63 | 247 | 7.0 | 12.0 | 0.00 | 0.00 | 0.00 | 33 | 999.3 |
| 20260505030512 | 63 | 263 | 5.0 | 12.0 | 0.00 | 0.00 | 0.00 | 33 | 999.2 |
| 20260505030031 | 64 | 174 | 4.0 | 17.0 | 0.00 | 0.00 | 0.00 | 33 | 999.1 |
| 20260505025518 | 64 | 246 | 4.0 | 18.0 | 0.00 | 0.00 | 0.00 | 33 | 999.2 |
| 20260505025014 | 64 | 214 | 6.0 | 18.0 | 0.00 | 0.00 | 0.00 | 33 | 999.1 |
| 20260505024529 | 64 | 229 | 5.0 | 13.0 | 0.00 | 0.00 | 0.00 | 34 | 999.0 |
| 20260505024015 | 65 | 229 | 4.0 | 13.0 | 0.00 | 0.00 | 0.00 | 36 | 999.0 |
| 20260505023514 | 65 | 265 | 4.0 | 13.0 | 0.00 | 0.00 | 0.00 | 36 | 998.9 |
| 20260505023030 | 65 | 271 | 5.0 | 13.0 | 0.00 | 0.00 | 0.00 | 36 | 998.7 |
| 20260505022514 | 65 | 288 | 5.0 | 12.0 | 0.00 | 0.00 | 0.00 | 37 | 998.5 |
| 20260505022016 | 65 | 229 | 4.0 | 13.0 | 0.00 | 0.00 | 0.00 | 38 | 998.4 |
| 20260505021532 | 66 | 303 | 2.0 | 13.0 | 0.00 | 0.00 | 0.00 | 38 | 998.3 |
| 20260505021015 | 66 | 302 | 5.0 | 13.0 | 0.00 | 0.00 | 0.00 | 38 | 998.2 |
| 20260505020516 | 66 | 264 | 3.0 | 12.0 | 0.00 | 0.00 | 0.00 | 38 | 998.1 |
| 20260505020038 | 66 | 218 | 3.0 | 13.0 | 0.00 | 0.00 | 0.00 | 38 | 998.0 |
| 20260505015515 | 67 | 278 | 5.0 | 18.0 | 0.00 | 0.00 | 0.00 | 37 | 997.9 |
| 20260505015014 | 67 | 232 | 5.0 | 18.0 | 0.00 | 0.00 | 0.00 | 37 | 997.7 |
| 20260505014541 | 67 | 311 | 3.0 | 12.0 | 0.00 | 0.00 | 0.00 | 38 | 997.7 |
| 20260505014014 | 67 | 221 | 3.0 | 15.0 | 0.00 | 0.00 | 0.00 | 38 | 997.4 |
| 20260505013516 | 68 | 332 | 4.0 | 15.0 | 0.00 | 0.00 | 0.00 | 38 | 997.2 |
| 20260505013039 | 68 | 336 | 4.0 | 15.0 | 0.00 | 0.00 | 0.00 | 38 | 997.1 |
| 20260505012518 | 68 | 266 | 4.0 | 15.0 | 0.00 | 0.00 | 0.00 | 41 | 996.7 |
| 20260505012013 | 69 | 0 | 2.0 | 8.0 | 0.00 | 0.00 | 0.00 | 41 | 996.4 |
| 20260505011536 | 69 | 317 | 2.0 | 9.0 | 0.00 | 0.00 | 0.00 | 40 | 996.2 |
| 20260505011015 | 69 | 241 | 3.0 | 9.0 | 0.00 | 0.00 | 0.00 | 40 | 996.1 |
| 20260505010514 | 70 | 292 | 2.0 | 8.0 | 0.00 | 0.00 | 0.00 | 40 | 996.0 |
| 20260505010030 | 70 | 349 | 3.0 | 8.0 | 0.00 | 0.00 | 0.00 | 40 | 995.9 |
| 20260505005514 | 71 | 306 | 3.0 | 11.0 | 0.00 | 0.00 | 0.00 | 39 | 995.9 |
| 20260505005016 | 72 | 326 | 3.0 | 16.0 | 0.00 | 0.00 | 0.00 | 39 | 995.7 |
| 20260505004544 | 72 | 292 | 7.0 | 16.0 | 0.00 | 0.00 | 0.00 | 38 | 995.5 |
| 20260505004015 | 73 | 16 | 7.0 | 19.0 | 0.00 | 0.00 | 0.00 | 39 | 995.4 |
| 20260505003515 | 73 | 312 | 5.0 | 19.0 | 0.00 | 0.00 | 0.00 | 37 | 995.1 |
| 20260505003050 | 73 | 239 | 4.0 | 12.0 | 0.00 | 0.00 | 0.00 | 36 | 994.6 |
| 20260505002515 | 73 | 266 | 3.0 | 9.0 | 0.00 | 0.00 | 0.00 | 36 | 994.5 |
| 20260505002015 | 74 | 282 | 4.0 | 9.0 | 0.00 | 0.00 | 0.00 | 35 | 994.5 |
| 20260505001531 | 74 | 254 | 3.0 | 10.0 | 0.00 | 0.00 | 0.00 | 34 | 994.4 |
| 20260505001013 | 74 | 244 | 3.0 | 11.0 | 0.00 | 0.00 | 0.00 | 34 | 994.5 |
| 20260505000516 | 74 | 200 | 4.0 | 12.0 | 0.00 | 0.00 | 0.00 | 34 | 994.5 |
| 20260505000034 | 74 | 232 | 6.0 | 15.0 | 0.00 | 0.00 | 0.00 | 33 | 994.5 |
| 20260504235515 | 75 | 173 | 4.0 | 15.0 | 0.00 | 0.00 | 0.00 | 34 | 994.5 |
| 20260504235013 | 75 | 244 | 5.0 | 14.0 | 0.00 | 0.00 | 0.00 | 33 | 994.6 |
| 20260504234532 | 75 | 240 | 6.0 | 15.0 | 0.00 | 0.00 | 0.00 | 33 | 994.6 |
| 20260504234019 | 75 | 248 | 6.0 | 15.0 | 0.00 | 0.00 | 0.00 | 33 | 994.7 |
| 20260504233514 | 76 | 253 | 5.0 | 23.0 | 0.00 | 0.00 | 0.00 | 33 | 994.8 |
| 20260504233035 | 76 | 202 | 8.0 | 27.0 | 0.00 | 0.00 | 0.00 | 33 | 995.1 |
| 20260504232517 | 77 | 156 | 11.0 | 27.0 | 0.00 | 0.00 | 0.00 | 32 | 995.3 |
| 20260504232011 | 77 | 254 | 8.0 | 22.0 | 0.00 | 0.00 | 0.00 | 33 | 995.1 |
| 20260504231531 | 77 | 234 | 11.0 | 21.0 | 0.00 | 0.00 | 0.00 | 32 | 995.1 |
| 20260504231015 | 77 | 252 | 7.0 | 16.0 | 0.00 | 0.00 | 0.00 | 32 | 995.0 |
| 20260504230518 | 77 | 206 | 8.0 | 16.0 | 0.00 | 0.00 | 0.00 | 31 | 995.1 |
| 20260504230031 | 77 | 261 | 6.0 | 15.0 | 0.00 | 0.00 | 0.00 | 32 | 994.9 |
| 20260504225515 | 77 | 230 | 6.0 | 16.0 | 0.00 | 0.00 | 0.00 | 32 | 995.1 |
| 20260504225016 | 77 | 264 | 9.0 | 16.0 | 0.00 | 0.00 | 0.00 | 32 | 995.0 |
| 20260504224530 | 78 | 239 | 8.0 | 20.0 | 0.00 | 0.00 | 0.00 | 31 | 995.1 |
| 20260504224015 | 78 | 221 | 8.0 | 20.0 | 0.00 | 0.00 | 0.00 | 31 | 995.0 |
| 20260504223515 | 79 | 200 | 8.0 | 20.0 | 0.00 | 0.00 | 0.00 | 30 | 995.1 |
| 20260504223041 | 78 | 186 | 9.0 | 20.0 | 0.00 | 0.00 | 0.00 | 31 | 995.2 |
| 20260504222517 | 78 | 183 | 7.0 | 23.0 | 0.00 | 0.00 | 0.00 | 30 | 995.1 |
| 20260504222014 | 79 | 239 | 11.0 | 27.0 | 0.00 | 0.00 | 0.00 | 29 | 995.1 |
| 20260504221529 | 79 | 190 | 10.0 | 27.0 | 0.00 | 0.00 | 0.00 | 29 | 995.2 |
| 20260504221012 | 79 | 232 | 10.0 | 24.0 | 0.00 | 0.00 | 0.00 | 28 | 995.1 |
| 20260504220514 | 79 | 231 | 10.0 | 24.0 | 0.00 | 0.00 | 0.00 | 29 | 995.1 |
| 20260504220031 | 80 | 235 | 11.0 | 20.0 | 0.00 | 0.00 | 0.00 | 28 | 995.3 |
| 20260504215515 | 80 | 232 | 8.0 | 20.0 | 0.00 | 0.00 | 0.00 | 28 | 995.4 |
| 20260504215019 | 80 | 212 | 8.0 | 18.0 | 0.00 | 0.00 | 0.00 | 28 | 995.3 |
| 20260504214533 | 80 | 240 | 6.0 | 18.0 | 0.00 | 0.00 | 0.00 | 29 | 995.5 |
| 20260504214018 | 80 | 210 | 6.0 | 18.0 | 0.00 | 0.00 | 0.00 | 28 | 995.4 |
| 20260504213515 | 80 | 140 | 5.0 | 18.0 | 0.00 | 0.00 | 0.00 | 29 | 995.5 |
| 20260504213029 | 80 | 207 | 7.0 | 22.0 | 0.00 | 0.00 | 0.00 | 28 | 995.5 |
| 20260504212515 | 79 | 223 | 7.0 | 22.0 | 0.00 | 0.00 | 0.00 | 29 | 995.5 |
| 20260504212015 | 79 | 279 | 6.0 | 19.0 | 0.00 | 0.00 | 0.00 | 29 | 995.7 |
| 20260504211539 | 78 | 242 | 8.0 | 21.0 | 0.00 | 0.00 | 0.00 | 30 | 995.7 |
| 20260504211015 | 79 | 296 | 8.0 | 21.0 | 0.00 | 0.00 | 0.00 | 30 | 995.7 |
| 20260504210515 | 79 | 225 | 9.0 | 19.0 | 0.00 | 0.00 | 0.00 | 29 | 995.8 |
| 20260504210036 | 78 | 267 | 6.0 | 18.0 | 0.00 | 0.00 | 0.00 | 29 | 995.8 |
| 20260504205513 | 79 | 252 | 10.0 | 22.0 | 0.00 | 0.00 | 0.00 | 29 | 995.9 |
| 20260504205014 | 79 | 226 | 7.0 | 23.0 | 0.00 | 0.00 | 0.00 | 29 | 995.9 |
| 20260504204533 | 79 | 171 | 8.0 | 23.0 | 0.00 | 0.00 | 0.00 | 29 | 996.0 |
| 20260504204015 | 79 | 246 | 7.0 | 25.0 | 0.00 | 0.00 | 0.00 | 29 | 995.9 |
| 20260504203516 | 79 | 232 | 8.0 | 25.0 | 0.00 | 0.00 | 0.00 | 29 | 996.0 |
| 20260504203031 | 79 | 219 | 11.0 | 24.0 | 0.00 | 0.00 | 0.00 | 30 | 996.2 |
| 20260504202516 | 78 | 238 | 7.0 | 23.0 | 0.00 | 0.00 | 0.00 | 30 | 996.2 |
| 20260504202016 | 78 | 284 | 8.0 | 22.0 | 0.00 | 0.00 | 0.00 | 29 | 996.2 |
| 20260504201531 | 78 | 229 | 8.0 | 18.0 | 0.00 | 0.00 | 0.00 | 28 | 996.4 |
| 20260504201015 | 78 | 200 | 9.0 | 26.0 | 0.00 | 0.00 | 0.00 | 29 | 996.5 |
| 20260504200515 | 78 | 227 | 11.0 | 26.0 | 0.00 | 0.00 | 0.00 | 28 | 996.4 |
| 20260504200030 | 78 | 254 | 8.0 | 23.0 | 0.00 | 0.00 | 0.00 | 30 | 996.6 |
| 20260504195518 | 78 | 261 | 10.0 | 23.0 | 0.00 | 0.00 | 0.00 | 29 | 996.6 |
| 20260504195014 | 79 | 244 | 10.0 | 23.0 | 0.00 | 0.00 | 0.00 | 28 | 996.5 |
| 20260504194532 | 78 | 212 | 5.0 | 18.0 | 0.00 | 0.00 | 0.00 | 31 | 996.5 |
| 20260504194016 | 78 | 241 | 9.0 | 20.0 | 0.00 | 0.00 | 0.00 | 29 | 996.6 |
| 20260504193513 | 78 | 246 | 9.0 | 20.0 | 0.00 | 0.00 | 0.00 | 31 | 996.6 |
| 20260504193030 | 78 | 207 | 9.0 | 18.0 | 0.00 | 0.00 | 0.00 | 28 | 996.8 |
| 20260504192515 | 78 | 238 | 6.0 | 18.0 | 0.00 | 0.00 | 0.00 | 31 | 996.8 |
| 20260504192014 | 77 | 304 | 7.0 | 20.0 | 0.00 | 0.00 | 0.00 | 29 | 996.8 |
| 20260504191534 | 77 | 171 | 8.0 | 23.0 | 0.00 | 0.00 | 0.00 | 30 | 996.9 |
| 20260504191015 | 77 | 290 | 10.0 | 23.0 | 0.00 | 0.00 | 0.00 | 29 | 996.8 |
| 20260504190515 | 77 | 260 | 9.0 | 20.0 | 0.00 | 0.00 | 0.00 | 29 | 996.9 |
| 20260504190032 | 77 | 224 | 9.0 | 22.0 | 0.00 | 0.00 | 0.00 | 30 | 996.7 |
| 20260504185512 | 76 | 199 | 7.0 | 24.0 | 0.00 | 0.00 | 0.00 | 31 | 996.9 |
| 20260504185015 | 76 | 239 | 12.0 | 24.0 | 0.00 | 0.00 | 0.00 | 29 | 997.1 |
| 20260504184543 | 76 | 271 | 10.0 | 25.0 | 0.00 | 0.00 | 0.00 | 30 | 997.1 |
| 20260504184015 | 76 | 199 | 10.0 | 25.0 | 0.00 | 0.00 | 0.00 | 30 | 997.0 |
| 20260504183514 | 76 | 261 | 8.0 | 22.0 | 0.00 | 0.00 | 0.00 | 30 | 997.2 |
| 20260504183032 | 76 | 244 | 9.0 | 22.0 | 0.00 | 0.00 | 0.00 | 30 | 997.3 |
| 20260504182511 | 76 | 216 | 6.0 | 22.0 | 0.00 | 0.00 | 0.00 | 31 | 997.3 |
| 20260504182014 | 76 | 189 | 7.0 | 24.0 | 0.00 | 0.00 | 0.00 | 30 | 997.3 |
| 20260504181534 | 76 | 250 | 12.0 | 24.0 | 0.00 | 0.00 | 0.00 | 29 | 997.2 |
| 20260504181016 | 76 | 222 | 11.0 | 25.0 | 0.00 | 0.00 | 0.00 | 30 | 997.3 |
| 20260504180517 | 76 | 235 | 12.0 | 25.0 | 0.00 | 0.00 | 0.00 | 30 | 997.3 |
| 20260504180030 | 75 | 260 | 9.0 | 23.0 | 0.00 | 0.00 | 0.00 | 32 | 997.3 |
| 20260504175516 | 75 | 193 | 10.0 | 22.0 | 0.00 | 0.00 | 0.00 | 33 | 997.5 |
| 20260504175020 | 75 | 269 | 10.0 | 22.0 | 0.00 | 0.00 | 0.00 | 29 | 997.4 |
| 20260504174530 | 75 | 176 | 10.0 | 24.0 | 0.00 | 0.00 | 0.00 | 30 | 997.6 |
| 20260504174013 | 75 | 249 | 12.0 | 25.0 | 0.00 | 0.00 | 0.00 | 32 | 997.5 |